{"data":{"norad_id":55586,"intl_designator":"2023-020T","name":"STARLINK-5767","alt_names":[],"object_type":"PAYLOAD","status":"ACTIVE","operator":null,"country":"US","launch_date":"2023-02-12","launch_site_code":"AFETR","launch_vehicle":null,"mission":null,"orbit_class":"UNKNOWN","rcs_meters":null,"size_class":null,"mass_kg":null,"dimensions":null,"purposes":["comms"],"wikipedia_slug":null,"has_3d_model":false,"image_url":null,"decayed_at":null,"tle_current":{"epoch":"2026-09-20T16:39:12.809664Z","epoch_age_seconds":83453,"freshness":"FRESH","line1":"1 55586U 23020T   26263.69389826  .00001592  00000+0  67367-4 0  9995","line2":"2 55586  43.0092 344.1467 0003360 299.6093  60.4424 15.27590308198736","mean_motion":15.27590308,"eccentricity":0.000336,"inclination_deg":43.0092,"raan_deg":344.1467,"arg_perigee_deg":299.6093,"mean_anomaly_deg":60.4424,"bstar":6.7367e-5,"rev_number":19873,"period_min":94.266112612702,"perigee_km":480.71288219554,"apogee_km":485.32357851033,"semimajor_km":6861.1552303529,"source":"CELESTRAK","updated_at":"2026-09-21T09:00:33.267020Z"}}}